Frankfort, KY

12:55 AM EDT on June 24, 2017 (GMT -0400)
Capital City

Weather History for KFFT - May, 2013

Change the Weather History Date:

Sunday, May 5, 2013

  Actual Average Record
Temperature  
Mean Temperature 51 °F 61 °F  
Max Temperature 54 °F 73 °F 90 °F (1949)
Min Temperature 48 °F 49 °F 32 °F (2011)
Degree Days  
Heating Degree Days 14 5  
Month to date heating degree days 18 28  
Since 1 July heating degree days 4709 4606  
Cooling Degree Days 0 1  
Month to date cooling degree days 4 5  
Year to date cooling degree days 23 25  
Growing Degree Days 1 (Base 50)    
Moisture  
Dew Point 50 °F    
Average Humidity 95    
Maximum Humidity 100    
Minimum Humidity 89    
Precipitation  
Precipitation 1.50 in 0.17 in 2.06 in (1958)
Month to date precipitation 2.01 0.82  
Year to date precipitation 16.02 15.44  
Sea Level Pressure  
Sea Level Pressure 29.90 in    
Wind  
Wind Speed 9 mph (ENE)    
Max Wind Speed 16 mph    
Max Gust Speed 22 mph    
Visibility 6 miles    
Events Rain    
T = Trace of Precipitation, MM = Missing Value Source: NWS Daily Summary

Daily Weather History Graph

Daily Weather History Graph

Search for Another Location

Airport or City:

Trip Planner

Search our weather history database for the weather conditions in past years. The results will help you decide how hot, cold, wet, or windy it might be!

Date:

Astronomy

May. 05, 2013 Rise Set
Actual Time 6:38 AM EDT 8:34 PM EDT
Civil Twilight 6:09 AM EDT 9:03 PM EDT
Nautical Twilight 5:34 AM EDT 9:38 PM EDT
Astronomical Twilight 4:57 AM EDT 10:16 PM EDT
Moon 4:04 AM EDT (5/5) 4:36 PM EDT (5/5)
Length of Visible Light 14h 54m
Length of Day
13h 56m
Waning Crescent, 18% of the Moon is Illuminated
May 5
Waning Crescent
May 9
New
May 18
First Quarter
May 25
Full
May 31
Last Quarter

Hourly Weather History & Observations

Time (EDT) Temp. Dew Point Humidity Pressure Visibility Wind Dir Wind Speed Gust Speed Precip Events Conditions
12:53 AM 54.0 °F 53.1 °F 97% 29.96 in 9.0 mi NNE 3.5 mph - 0.05 in Rain Light Rain
1:53 AM 54.0 °F 53.1 °F 97% 29.95 in 9.0 mi NE 6.9 mph - 0.00 in   Overcast
2:53 AM 54.0 °F 52.0 °F 93% 29.93 in 10.0 mi NE 6.9 mph - 0.03 in Rain Light Rain
3:53 AM 53.1 °F 52.0 °F 96% 29.92 in 7.0 mi NE 6.9 mph - 0.07 in Rain Light Rain
4:07 AM 53.6 °F 51.8 °F 94% 29.92 in 9.0 mi NE 8.1 mph - 0.00 in Rain Light Rain
4:41 AM 53.6 °F 53.6 °F 100% 29.91 in 7.0 mi NE 8.1 mph - 0.03 in Rain Light Rain
4:53 AM 54.0 °F 52.0 °F 93% 29.90 in 6.0 mi NE 8.1 mph - 0.05 in Rain Light Rain
5:10 AM 53.6 °F 51.8 °F 94% 29.90 in 6.0 mi ENE 12.7 mph 17.3 mph 0.02 in Rain Rain
5:53 AM 52.0 °F 51.1 °F 97% 29.90 in 5.0 mi ENE 10.4 mph - 0.08 in Rain Rain
6:53 AM 52.0 °F 50.0 °F 93% 29.90 in 4.0 mi ENE 8.1 mph - 0.15 in Rain Rain
7:53 AM 52.0 °F 50.0 °F 93% 29.90 in 4.0 mi ENE 12.7 mph 19.6 mph 0.11 in Rain Rain
8:53 AM 52.0 °F 50.0 °F 93% 29.91 in 5.0 mi ENE 8.1 mph - 0.08 in Rain Light Rain
9:43 AM 51.8 °F 50.0 °F 94% 29.92 in 1.8 mi ENE 8.1 mph - 0.04 in Rain Rain
9:53 AM 52.0 °F 50.0 °F 93% 29.91 in 3.0 mi ENE 10.4 mph - 0.06 in Rain Rain
10:46 AM 51.8 °F 50.0 °F 94% 29.91 in 2.5 mi ENE 11.5 mph - 0.19 in Rain Rain
10:53 AM 51.1 °F 50.0 °F 96% 29.91 in 3.0 mi East 9.2 mph 18.4 mph 0.21 in Rain Rain
11:10 AM 51.8 °F 50.0 °F 94% 29.92 in 4.0 mi East 11.5 mph - 0.04 in Rain Light Rain
11:18 AM 51.8 °F 50.0 °F 94% 29.92 in 4.0 mi East 10.4 mph - 0.05 in Rain Rain
11:53 AM 51.1 °F 48.9 °F 92% 29.92 in 4.0 mi ENE 9.2 mph - 0.12 in Rain Rain
12:53 PM 50.0 °F 48.0 °F 93% 29.93 in 5.0 mi ENE 9.2 mph - 0.12 in Rain Light Rain
1:49 PM 50.0 °F 48.2 °F 94% 29.92 in 2.5 mi ENE 10.4 mph 20.7 mph 0.05 in   Overcast
2:06 PM 48.2 °F 48.2 °F 100% 29.92 in 1.5 mi ENE 12.7 mph 20.7 mph 0.02 in Rain Rain
2:19 PM 48.2 °F 48.2 °F 100% 29.92 in 2.0 mi ENE 12.7 mph - 0.05 in Rain Rain
2:32 PM 48.2 °F 46.4 °F 93% 29.92 in 3.0 mi ENE 12.7 mph 21.9 mph 0.08 in Rain Rain
2:46 PM 48.2 °F 46.4 °F 93% 29.93 in 4.0 mi ENE 11.5 mph 21.9 mph 0.11 in Rain Rain
2:53 PM 48.0 °F 46.0 °F 93% 29.92 in 4.0 mi ENE 9.2 mph - 0.13 in Rain Rain
3:35 PM 48.2 °F 46.4 °F 93% 29.92 in 5.0 mi ENE 12.7 mph 21.9 mph 0.08 in Rain Rain
3:53 PM 48.9 °F 46.9 °F 93% 29.91 in 4.0 mi East 11.5 mph - 0.10 in Rain Light Rain
4:03 PM 48.2 °F 46.4 °F 93% 29.91 in 6.0 mi East 12.7 mph 18.4 mph 0.01 in Rain Light Rain
4:53 PM 48.9 °F 46.9 °F 93% 29.90 in 8.0 mi East 11.5 mph - 0.06 in Rain Light Rain
5:53 PM 50.0 °F 48.0 °F 93% 29.90 in 2.0 mi East 11.5 mph 17.3 mph 0.04 in Rain Rain
6:05 PM 50.0 °F 48.2 °F 94% 29.89 in 3.0 mi ENE 8.1 mph - 0.01 in Rain Light Rain
6:53 PM 50.0 °F 48.0 °F 93% 29.89 in 7.0 mi East 9.2 mph - 0.03 in Rain Light Rain
7:39 PM 50.0 °F 48.2 °F 94% 29.88 in 10.0 mi ENE 10.4 mph - 0.00 in Rain Light Rain
7:53 PM 50.0 °F 48.9 °F 96% 29.88 in 10.0 mi NE 9.2 mph - 0.00 in   Overcast
8:25 PM 51.8 °F 48.2 °F 88% 29.88 in 10.0 mi NE 6.9 mph - N/A   Overcast
8:46 PM 51.8 °F 48.2 °F 88% 29.87 in 10.0 mi NE 10.4 mph 16.1 mph N/A   Overcast
8:53 PM 51.1 °F 48.9 °F 92% 29.87 in 10.0 mi ENE 9.2 mph 16.1 mph N/A   Overcast
9:08 PM 51.8 °F 48.2 °F 88% 29.87 in 10.0 mi NE 8.1 mph - N/A   Overcast
9:53 PM 52.0 °F 50.0 °F 93% 29.87 in 10.0 mi NE 6.9 mph - N/A   Overcast
10:45 PM 53.6 °F 51.8 °F 94% 29.88 in 10.0 mi NE 9.2 mph - 0.00 in   Overcast
10:53 PM 53.1 °F 51.1 °F 93% 29.88 in 10.0 mi ENE 9.2 mph - 0.00 in   Overcast
11:01 PM 53.6 °F 51.8 °F 94% 29.88 in 10.0 mi ENE 9.2 mph - N/A   Overcast
11:24 PM 53.6 °F 51.8 °F 94% 29.87 in 10.0 mi ENE 8.1 mph - N/A   Overcast
11:53 PM 53.1 °F 51.1 °F 93% 29.86 in 10.0 mi ENE 8.1 mph - 0.01 in Rain Light Rain